{"data":{"norad_id":60093,"epoch":"2026-09-21T06:09:43.806528Z","epoch_age_seconds":112821,"freshness":"FRESH","line1":"1 60093U 24117C   26264.25675702 -.00001493  00000+0 -33084-4 0  9997","line2":"2 60093  53.1587 206.2597 0001537  86.4638 273.6540 15.34376622126860","mean_motion":15.34376622,"eccentricity":0.0001537,"inclination_deg":53.1587,"raan_deg":206.2597,"arg_perigee_deg":86.4638,"mean_anomaly_deg":273.654,"bstar":-3.3084e-5,"rev_number":12686,"period_min":93.849187960321,"perigee_km":461.72127760722,"apogee_km":463.82417325682,"semimajor_km":6840.909725432,"source":"CELESTRAK","updated_at":"2026-09-22T09:00:49.149721Z"}}